Location: Lecco
(45.8566°N, 9.3977°E)
Time: 08:26:08
(UTC+02:00)

Altair - Pass Details

Date: 20 August 2020
Orbit: 1501 x 1682 km, 47.2° (Epoch: 25 September)

Event Time Altitude Azimuth Distance (km) Brightness Sun altitude
Rises 04:58:34 0° 278° (W) 4,802 - -14.7°
Exits shadow 04:59:31 - 279° (W) 4,498 9.5 -14.6°
Reaches altitude 10° 05:01:43 10° 279° (W) 3,792 9.1 -14.3°
Maximum altitude 05:11:21 86° 9° (N) 1,550 7.5 -12.9°
Drops below altitude 10° 05:20:38 10° 100° (E) 3,668 10.2 -11.6°
Sets 05:23:38 0° 101° (E) 4,638 10.8 -11.1°
